Weather History for Charlottesville, VA

Change the Weather History Date:

Wednesday, February 27, 2013

  Actual Average Record
Temperature  
Mean Temperature 46 °F 41 °F  
Max Temperature 55 °F 52 °F 78 °F (1977)
Min Temperature 36 °F 30 °F 7 °F (1934)
Degree Days  
Heating Degree Days 19 24  
Month to date heating degree days 750 728  
Since 1 July heating degree days 3034 3388  
Cooling Degree Days 0 0  
Month to date cooling degree days 0 0  
Year to date cooling degree days 0 0  
Moisture  
Dew Point 35 °F    
Average Humidity 69    
Maximum Humidity 100    
Minimum Humidity 38    
Precipitation  
Precipitation 0.01 in 0.12 in 1.05 in (1958)
Month to date precipitation 1.39 2.58  
Year to date precipitation 6.44 5.35  
Sea Level Pressure  
Sea Level Pressure 29.62 in    
Wind  
Wind Speed 5 mph (West)    
Max Wind Speed 14 mph    
Max Gust Speed 28 mph    
Visibility 9 miles    
Events      
T = Trace of Precipitation, MM = Missing Value Source: NWS Daily Summary

Daily Weather History Graph

Daily Weather History Graph

Search for Another Location

Airport:

Trip Planner

Search our weather history database for the weather conditions in past years. The results will help you decide how hot, cold, wet, or windy it might be!

Date:

Astronomy

Feb. 27, 2013 Rise Set
Actual Time 6:48 AM EST 6:05 PM EST
Civil Twilight 6:21 AM EST 6:31 PM EST
Nautical Twilight 5:51 AM EST 7:02 PM EST
Astronomical Twilight 5:20 AM EST 7:33 PM EST
Moon 8:21 PM EST (2/27) 7:24 AM EST (2/27)
Length of Visible Light 12h 10m
Length of Day
11h 17m
Waning Gibbous, 96% of the Moon is Illuminated
Feb 27
Waning Gibbous
Mar 4
Last Quarter
Mar 11
New
Mar 19
First Quarter
Mar 27
Full

Hourly Weather History & Observations

Time (EST) Temp. Windchill Dew Point Humidity Pressure Visibility Wind Dir Wind Speed Gust Speed Precip Events Conditions
12:00 AM 42.8 °F 40.1 °F 41.0 °F 93% 29.58 in 8.0 mi NNE 4.6 mph - N/A   Overcast
12:33 AM 42.8 °F - 41.0 °F 93% 29.58 in 10.0 mi Calm Calm - N/A   Overcast
12:53 AM 42.1 °F - 39.9 °F 92% 29.58 in 9.0 mi Calm Calm - 0.01 in   Overcast
1:50 AM 41.0 °F 39.0 °F 41.0 °F 100% 29.56 in 2.5 mi Variable 3.5 mph - N/A   Overcast
1:53 AM 41.0 °F 39.0 °F 41.0 °F 100% 29.57 in 1.0 mi West 3.5 mph - N/A   Overcast
1:55 AM 41.0 °F 39.0 °F 39.2 °F 93% 29.56 in 0.8 mi West 3.5 mph - N/A   Overcast
2:15 AM 41.0 °F 39.0 °F 41.0 °F 100% 29.56 in 1.2 mi SW 3.5 mph - N/A   Overcast
2:21 AM 41.0 °F 39.0 °F 41.0 °F 100% 29.56 in 3.0 mi SW 3.5 mph - N/A   Overcast
2:30 AM 41.0 °F 39.0 °F 39.2 °F 93% 29.56 in 8.0 mi SSW 3.5 mph - N/A   Overcast
2:53 AM 41.0 °F - 39.9 °F 96% 29.57 in 10.0 mi Calm Calm - N/A   Overcast
3:20 AM 41.0 °F - 39.2 °F 93% 29.56 in 10.0 mi Calm Calm - N/A   Overcast
3:28 AM 41.0 °F - 39.2 °F 93% 29.55 in 10.0 mi Calm Calm - N/A   Overcast
3:53 AM 39.9 °F - 39.0 °F 97% 29.56 in 10.0 mi Calm Calm - N/A   Overcast
4:16 AM 39.2 °F - 37.4 °F 93% 29.55 in 10.0 mi Calm Calm - N/A   Overcast
4:35 AM 37.4 °F 33.8 °F 35.6 °F 93% 29.55 in 9.0 mi SSW 4.6 mph - N/A   Mostly Cloudy
4:53 AM 39.0 °F 36.8 °F 37.0 °F 93% 29.57 in 10.0 mi SW 3.5 mph - N/A   Mostly Cloudy
5:53 AM 37.9 °F 35.5 °F 36.0 °F 93% 29.59 in 9.0 mi NNW 3.5 mph - N/A   Mostly Cloudy
6:18 AM 37.4 °F 34.9 °F 37.4 °F 100% 29.60 in 10.0 mi WSW 3.5 mph - N/A   Mostly Cloudy
6:37 AM 37.4 °F - 35.6 °F 93% 29.60 in 10.0 mi Calm Calm - N/A   Overcast
6:53 AM 39.0 °F - 36.0 °F 89% 29.61 in 10.0 mi Calm Calm - N/A   Scattered Clouds
7:53 AM 39.0 °F 35.7 °F 37.9 °F 96% 29.63 in 7.0 mi SSW 4.6 mph - N/A   Clear
8:53 AM 45.0 °F 43.5 °F 39.0 °F 80% 29.66 in 10.0 mi Variable 3.5 mph - N/A   Clear
10:53 AM 51.1 °F - 34.0 °F 52% 29.66 in 10.0 mi Variable 6.9 mph - N/A   Mostly Cloudy
11:53 AM 53.1 °F - 32.0 °F 45% 29.67 in 10.0 mi WSW 9.2 mph - N/A   Mostly Cloudy
12:53 PM 52.0 °F - 28.9 °F 41% 29.66 in 10.0 mi West 13.8 mph 27.6 mph N/A   Scattered Clouds
1:53 PM 53.1 °F - 30.0 °F 41% 29.66 in 10.0 mi West 13.8 mph 25.3 mph N/A   Scattered Clouds
2:41 PM 53.6 °F - 28.4 °F 38% 29.65 in 10.0 mi West 13.8 mph 25.3 mph N/A   Partly Cloudy
2:53 PM 53.1 °F - 28.9 °F 40% 29.65 in 10.0 mi West 13.8 mph 25.3 mph N/A   Clear
3:53 PM 52.0 °F - 28.9 °F 41% 29.67 in 10.0 mi West 13.8 mph 25.3 mph N/A   Scattered Clouds
4:53 PM 50.0 °F - 28.9 °F 44% 29.67 in 10.0 mi West 13.8 mph 25.3 mph N/A   Scattered Clouds
5:53 PM 48.9 °F - 28.9 °F 46% 29.68 in 10.0 mi West 3.5 mph - N/A   Scattered Clouds
6:53 PM 48.9 °F - 30.0 °F 48% 29.70 in 10.0 mi Calm Calm - N/A   Overcast
7:53 PM 46.9 °F - 28.9 °F 50% 29.70 in 10.0 mi Calm Calm - N/A   Scattered Clouds
8:53 PM 46.0 °F - 28.9 °F 51% 29.69 in 10.0 mi Calm Calm - N/A   Partly Cloudy
9:53 PM 45.0 °F 43.5 °F 28.9 °F 53% 29.68 in 10.0 mi WNW 3.5 mph - N/A   Clear
10:53 PM 45.0 °F 43.5 °F 28.9 °F 53% 29.67 in 10.0 mi Variable 3.5 mph - N/A   Overcast
11:53 PM 45.0 °F - 30.0 °F 56% 29.65 in 10.0 mi Calm Calm - N/A   Mostly Cloudy